Weather History for Toledo, OH

Change the Weather History Date:

Saturday, December 1, 2012

  Actual Average Record
Temperature  
Mean Temperature 50 °F 35 °F  
Max Temperature 59 °F 42 °F 65 °F (1970)
Min Temperature 40 °F 28 °F 3 °F (1964)
Degree Days  
Heating Degree Days 15 30  
Month to date heating degree days 15 30  
Since 1 July heating degree days 1352 1263  
Cooling Degree Days 0 0  
Month to date cooling degree days 0 0  
Year to date cooling degree days 998 793  
Moisture  
Dew Point 41 °F    
Average Humidity 79    
Maximum Humidity 100    
Minimum Humidity 57    
Precipitation  
Precipitation 0.00 in 0.09 in 1.38 in (1974)
Month to date precipitation 0.00 0.09  
Year to date precipitation 28.19 31.65  
Snow  
Snow 0.00 in 0.20 in - ()
Month to date snowfall 0.0 0.2  
Since 1 July snowfall T 2.3  
Snow Depth 0.00 in    
Sea Level Pressure  
Sea Level Pressure 30.18 in    
Wind  
Wind Speed 8 mph (SE)    
Max Wind Speed 18 mph    
Max Gust Speed 26 mph    
Visibility 6 miles    
Events      
T = Trace of Precipitation, MM = Missing Value Source: NWS Daily Summary

Daily Weather History Graph

Daily Weather History Graph

Search for Another Location

Airport:

Trip Planner

Search our weather history database for the weather conditions in past years. The results will help you decide how hot, cold, wet, or windy it might be!

Date:

Astronomy

Dec. 01, 2012 Rise Set
Actual Time 7:42 AM EST 5:05 PM EST
Civil Twilight 7:12 AM EST 5:36 PM EST
Nautical Twilight 6:37 AM EST 6:11 PM EST
Astronomical Twilight 6:04 AM EST 6:44 PM EST
Moon 7:55 PM EST (12/1) 9:54 AM EST (12/1)
Length of Visible Light 10h 24m
Length of Day
9h 22m
Waning Gibbous, 92% of the Moon is Illuminated
Dec 1
Waning Gibbous
Dec 6
Last Quarter
Dec 13
New
Dec 20
First Quarter
Dec 28
Full

Hourly Weather History & Observations

Time (EST) Temp. Windchill Dew Point Humidity Pressure Visibility Wind Dir Wind Speed Gust Speed Precip Events Conditions
12:52 AM 39.9 °F 32.9 °F 37.0 °F 89% 30.21 in 5.0 mi East 11.5 mph - N/A   Overcast
1:52 AM 39.9 °F 35.8 °F 37.0 °F 89% 30.23 in 5.0 mi ENE 5.8 mph - N/A   Overcast
2:52 AM 39.9 °F 35.8 °F 37.9 °F 93% 30.23 in 5.0 mi ENE 5.8 mph - N/A   Overcast
3:52 AM 39.9 °F 35.1 °F 37.9 °F 93% 30.23 in 4.0 mi ENE 6.9 mph - N/A   Overcast
4:52 AM 39.9 °F 35.1 °F 37.9 °F 93% 30.23 in 4.0 mi ENE 6.9 mph - N/A   Overcast
5:52 AM 39.9 °F 35.1 °F 37.9 °F 93% 30.24 in 4.0 mi East 6.9 mph - N/A   Overcast
6:38 AM 39.2 °F 35.0 °F 37.4 °F 93% 30.23 in 3.0 mi East 5.8 mph - N/A   Overcast
6:52 AM 39.9 °F 35.1 °F 37.9 °F 93% 30.25 in 3.0 mi East 6.9 mph - N/A   Overcast
7:42 AM 39.2 °F 37.0 °F 39.2 °F 100% 30.23 in 2.0 mi ESE 3.5 mph - N/A   Overcast
7:52 AM 39.9 °F 37.8 °F 39.0 °F 97% 30.24 in 1.8 mi ESE 3.5 mph - N/A   Overcast
8:52 AM 39.9 °F - 39.0 °F 97% 30.26 in 1.8 mi Calm Calm - N/A   Overcast
9:26 AM 41.0 °F 38.0 °F 39.2 °F 93% 30.23 in 2.0 mi East 4.6 mph - N/A   Overcast
9:52 AM 42.1 °F 39.2 °F 39.0 °F 89% 30.24 in 3.0 mi East 4.6 mph - N/A   Overcast
10:09 AM 42.8 °F 41.1 °F 39.2 °F 87% 30.22 in 4.0 mi East 3.5 mph - N/A   Scattered Clouds
10:52 AM 46.0 °F 43.9 °F 39.0 °F 76% 30.24 in 5.0 mi South 4.6 mph - N/A   Haze
11:52 AM 50.0 °F - 39.0 °F 66% 30.21 in 6.0 mi South 4.6 mph - N/A   Haze
12:52 PM 54.0 °F - 39.9 °F 59% 30.17 in 7.0 mi South 5.8 mph - N/A   Clear
1:52 PM 55.9 °F - 43.0 °F 62% 30.14 in 7.0 mi SSW 6.9 mph - N/A   Clear
2:52 PM 57.9 °F - 44.1 °F 60% 30.12 in 7.0 mi SSW 10.4 mph - N/A   Clear
3:52 PM 59.0 °F - 45.0 °F 60% 30.12 in 8.0 mi South 9.2 mph 17.3 mph N/A   Scattered Clouds
4:52 PM 59.0 °F - 46.9 °F 64% 30.11 in 8.0 mi South 8.1 mph - N/A   Overcast
5:52 PM 57.0 °F - 46.0 °F 67% 30.11 in 9.0 mi South 9.2 mph - N/A   Scattered Clouds
6:52 PM 55.9 °F - 46.0 °F 69% 30.10 in 9.0 mi South 10.4 mph 17.3 mph N/A   Scattered Clouds
7:52 PM 54.0 °F - 45.0 °F 72% 30.09 in 10.0 mi South 11.5 mph - N/A   Clear
8:52 PM 53.1 °F - 44.1 °F 71% 30.08 in 10.0 mi South 15.0 mph 20.7 mph N/A   Clear
9:52 PM 54.0 °F - 44.1 °F 69% 30.07 in 10.0 mi South 13.8 mph 21.9 mph N/A   Mostly Cloudy
10:52 PM 55.0 °F - 44.1 °F 67% 30.06 in 10.0 mi South 11.5 mph 19.6 mph N/A   Overcast
11:52 PM 55.9 °F - 44.1 °F 64% 30.04 in 10.0 mi South 13.8 mph 24.2 mph N/A   Mostly Cloudy